928  
ASUS41 KAKQ 210214  
RWRAKQ  
 
REGIONAL WEATHER ROUNDUP  
NATIONAL WEATHER SERVICE WAKEFIELD VA  
1000 PM EDT SAT APR 20 2019  
 
NOTE: "FAIR" INDICATES FEW OR NO CLOUDS BELOW 12,000 FEET WITH NO  
SIGNIFICANT WEATHER AND/OR S TO VISIBILITY
. * = DENOTES  
STATION MAY NOT REPORT PRECIPITATION (E.G., RAIN,SNOW,ETC.),
 
THUNDER OR FOG.  
 
VAZ042-051-052>054-056-210300-  
NORTHERN VIRGINIA  
 
CITY SKY/WX TMP DP RH WIND PRES REMARKS
 
WASH NATIONAL MOCLDY 64 39 39 SW12 29.79R  
DULLES MOCLDY 58 41 53 S9 29.80R  
FORT BELVOIR DRIZZLE 63 41 45 SW6 29.80R  
QUANTICO CLOUDY 63 41 44 SW6 29.81R  
FREDERICKSBRG* CLOUDY 61 42 49 SW8 29.81R  
STAFFORD* CLOUDY 60 40 47 SW5 29.84R  
WARRENTON CLOUDY 59 37 44 SW5 29.80R  
CULPEPER* CLOUDY 58 39 48 SW7 29.82R  
MANASSAS* CLOUDY 59 42 53 VRB5 29.81R  
LEESBURG* FAIR 59 43 55 SW9 29.80R  
WINCHESTER FAIR 54 37 54 SW8 29.80R  
FRONT ROYAL* FAIR 54 37 54 SW3 29.78R  
LURAY* FAIR 52 41 66 SW6 29.80R  

 
 
VAZ048-049-060>072-079>083-210300-  
CENTRAL AND SOUTH CENTRAL VIRGINIA  
 
CITY SKY/WX TMP DP RH WIND PRES REMARKS
 
RICHMOND MOCLDY 59 44 57 SW9 29.83R  
CHESTERFIELD* CLOUDY 55 46 71 SW3 29.83R  
PETERSBURG* CLOUDY 53 47 81 SW5 29.85R  
HANOVER CLOUDY 59 42 53 SW12 29.83R  
TAPPAHANNOCK* FAIR 57 47 71 CALM 29.82R  
QUINTON* NOT AVBL  
CHARLOTTSVILLE MOCLDY 56 39 53 SW8 29.80R  
GORDONSVILLE* MOCLDY 55 41 57 SW7 29.80R  
ORANGE* CLOUDY 55 37 50 SW13G22 29.81R  
LOUISA* CLOUDY 55 40 57 SW6 29.86R  
BUMPASS* NOT AVBL  
FARMVILLE* CLOUDY 52 43 72 SW7 29.82R  
CREWE* CLOUDY 53 42 68 SW5 29.83R  
FORT PICKETT* CLOUDY 53 44 70 SW5 29.83S  
CHASE CITY* FAIR 51 45 78 CALM 29.84R  
CLARKSVILLE* FAIR 50 45 81 S5 29.84R  
SOUTH HILL* CLOUDY 52 47 86 S5 29.90R  
LAWRENCEVILLE* NOT AVBL  
EMPORIA* CLOUDY 55 46 71 SW6 29.86R  

 
 
VAZ088>098-210300-  
SOUTHEAST VIRGINIA  
 
CITY SKY/WX TMP DP RH WIND PRES REMARKS
 
NORFOLK CLOUDY 64 47 53 S10 29.82R  
VIRGINIA BEACH MOCLDY 63 49 60 S7 29.83R  
NORFOLK NAVAL CLOUDY 63 47 55 S12G21 29.84R  
WEST POINT* CLOUDY 59 47 64 W8 29.83R  
SALUDA* MOCLDY 56 53 89 CALM 29.80S  
NEWPORT NEWS LGT RAIN 64 45 49 S17 29.83R  
LANGLEY AFB FAIR 64 48 57 S13 29.82R  
FORT EUSTIS NOT AVBL  
WILLIAMSBURG* MOCLDY 63 46 55 W10G17 29.84R  
HR EXEC AP* MOCLDY 61 48 62 SW8 29.84R  
FRANKLIN* CLOUDY 59 47 65 W8 29.85R  
US460-WAKEFLD CLOUDY 60 45 57 SW6 29.84R  

 
 
VAZ020-022-025-037-045-210300-  
WEST CENTRAL AND SOUTHWEST VIRGINIA  
 
CITY SKY/WX TMP DP RH WIND PRES REMARKS
 
STAUNTON* FAIR 47 41 81 SW7 29.83R  
WAYNESBORO* CLOUDY 47 42 80 SW6 29.81R  
HOT SPRINGS VA CLOUDY 39 39 100 W6 29.78R  
LYNCHBURG FAIR 47 43 86 S7 29.83R  
DANVILLE FAIR 48 46 93 CALM 29.85R  
SOUTH BOSTON* FAIR 50 46 87 CALM 29.84S  
MARTINSVILLE FAIR 44 44 100 CALM 29.87R  
ROANOKE FAIR 48 42 80 SE5 29.84R  
BLACKSBURG MOCLDY 43 43 100 CALM 29.85R  
DUBLIN* CLOUDY 44 42 95 SW6 29.84R  
MARION* CLOUDY 42 41 97 W14 29.84R  
HILLSVILLE* CLOUDY 40 39 97 NW7 29.81R  
RICHLANDS* CLOUDY 38 37 94 SW6 29.82R  
WISE* CLOUDY 39 39 100 W7 29.84R  
ABINGDON* CLOUDY 40 39 96 W9 29.85R  

 
 
MDZ021>025-VAZ099-100-210300-  
SOUTHERN MARYLAND AND THE DELMARVA PENINSULA  
 
CITY SKY/WX TMP DP RH WIND PRES REMARKS
 
PATUXENT RIVER MOCLDY 62 46 55 S3 29.80R  
BAY BRIDGE APT FAIR 63 45 51 S6 29.79R  
LEONARDTOWN CLOUDY 61 46 59 SW6 29.82R  
DOVER CLEAR 60 51 72 SE7 29.80R  
GEORGETOWN FAIR 59 50 72 S9 29.82R  
EASTON FAIR 64 51 62 SE7 29.84R  
CAMBRIDGE CLOUDY 63 55 77 SE5 29.80R  
SALISBURY FAIR 59 50 72 S6 29.82R  
TANGIER FAIR 63 55 77 S9 29.81R  
OCEAN CITY FAIR 59 52 77 S9G17 29.84R  
WALLOPS ISLAND FAIR 60 52 74 S16 29.84R  
ACCOMACK* FAIR 61 51 70 S8 29.83R  

 
 
NCZ012>017-030>032-210300-  
NORTH CENTRAL AND EASTERN NORTH CAROLINA  
 
CITY SKY/WX TMP DP RH WIND PRES REMARKS
 
ROANOKE RAPIDS CLOUDY 52 50 93 SW8 29.87R  
RALEIGH CLOUDY 50 47 89 W5 29.86R  
ELIZABETH CITY CLOUDY 64 52 64 S8 29.85R  
AHOSKIE* CLOUDY 57 47 69 W8 29.87R  
EDENTON* NOT AVBL  
CURRITUCK* FAIR 63 54 72 MISG 29.85R  
KILL DEVIL HLS CLOUDY 64 53 69 SW3 29.86R  
MANTEO CLOUDY 64 55 72 SW10 29.87R  
CAPE HATTERAS FAIR 66 58 75 SW8 29.87R  
TARBORO* NOT AVBL  
GOLDSBORO CLOUDY 56 49 76 SW7 29.87R  
WASHINGTON CLOUDY 61 47 61 W14G22 29.88R  
GREENVILLE MOCLDY 59 46 63 W8 29.90R  
NEW BERN FAIR 58 48 69 SW7 29.89R  
WILMINGTON MOCLDY 59 41 51 SW20G30 29.93R  

 
 
VAZ048-210300-  
ELSEWHERE  
 
CITY SKY/WX TMP DP RH WIND PRES REMARKS
 
HARRISBURG PA LGT RAIN 59 48 67 S9G20 29.77R  
BALTIMORE FAIR 64 41 42 SW6 29.78R  
ANNAPOLIS FAIR 65 42 43 S7 29.78R  
ANDREWS AFB CLOUDY 62 41 46 SW7 29.78R  
PHILADELPHIA MOCLDY 60 50 69 S9 29.81R  
HENDERSON NC FAIR 48 42 80 SW8 29.85S  
GREENSBORO MOCLDY 47 46 97 SW5 29.84R  
ROCKY MOUNT CLOUDY 55 49 80 SW3 29.87R  

 
 
VAZ100-210300-  
MARINE  
 
STATION/POSITION TIME TEMP WIND PRES WAVE SWELL
 
AIR SEA DIR/SP/G HT/PER HT/PER  
(UTC) (F) (DEG/KT/KT) (MB) (FT/S) (FT/S)  
BRANDYWINE LGT 0148 1010.2R  
CAPE MAY NJ 0148 55 57 140/ 8/ 10 1009.8R  
LEWES DE 0148 62 55 190/ 5/ 7 1009.8R  
15NM E FENWICK I 0150 50 1010.1R 7/11  
OCEAN-CITY-INLET 0148 58 57 230/ 10/ 12 1011.0R  
WACHAPREAGUE VA 0148 62 65 200/ 16/ 18 1009.7R  
THOMAS POINT MD 0200 64 58 190/ 11/ 12 1009.6R  
COVE POINT MD 0148 64 220/ 9/ 11 1009.5R  
SOLOMONS ISLAND 0148 61 58 210/ 3/ 4 1008.5R  
BISHOPS HEAD MD 0142 64 69 180/ 10/ 12 1009.5R  
PINEY POINT MD 0148 210/ 4/ 5 N/A  
CAMBRIDGE MD 0148 64 64 1009.1R  
LEWISETTA VA 0148 63 63 220/ 4/ 5 1009.0R  
STINGRAY PT 0154 63 61 210/ 8/ 10 1007.9R  
YORK RVR RNG VA 0148 65 200/ 15/ 17 1009.8R  
YORKTOWN VA 0148 65 62 190/ 9/ 13 1009.0R  
DOMINION TERM VA 0148 64 190/ 11/ 14 1010.1R  
KIPTOPEKE VA 0148 60 180/ 10/ 11 N/A  
CAPE HENRY VA 0148 64 180/ 7/ 11 1010.0R  
WILLOUBY STN VA 0148 64 190/ 17/ 20 1008.9R  
S CRANEY ISL VA 0148 64 190/ 10/ 15 1009.8R  
CAPE HENRY BUOY 0130 57 N/A 6/10 2/11  
1ST LANDING BUOY 0150 62 190/ 10/ 14 1009.9R  
64NM E OF VA BCH 0150 58 56 180/ 8/ 10 1011.7R 10/10 10/10  
DUCK PIER NC 0148 65 51 180/ 11/ 14 1010.7R  
44056 DUCK FRF 0130 51 N/A 5/11 2/11  
OREGON INLET NC 0142 66 69 200/ 14/ 17 1011.3R  
HATTERAS NC 0148 66 68 190/ 4/ 9 1011.3R  
CAPE LOOKOUT NC 0100 64 230/ 15/ 22 1011.5R  

 
 
 
CLICK HERE TO GO TO PREVIOUS BULLETINS.

The Nexlab VA Page
The Nexlab NC Page
The Nexlab MD Page Main Text Page